{"data":{"norad_id":66984,"epoch":"2026-09-20T17:36:54.059328Z","epoch_age_seconds":61332,"freshness":"FRESH","line1":"1 66984U 25288AB  26263.73395902  .00018792  00000+0  69031-3 0  9993","line2":"2 66984  43.0040   2.2237 0001675 280.6570  79.4094 15.27597279 45117","mean_motion":15.27597279,"eccentricity":0.0001675,"inclination_deg":43.004,"raan_deg":2.2237,"arg_perigee_deg":280.657,"mean_anomaly_deg":79.4094,"bstar":0.00069031,"rev_number":4511,"period_min":94.265682441033,"perigee_km":481.84811698047,"apogee_km":484.14659699006,"semimajor_km":6861.1343569853,"source":"CELESTRAK","updated_at":"2026-09-21T09:00:36.067253Z"}}